Regional Weather Roundup
Issued by NWS

Home | Current Version | Previous Version | Graphics & Text | Print | Product List | Glossary On
Versions: 1 2 3 4 5 6 7 8 9 10 11 12 13 14 15 16 17 18 19 20 21 22 23 24 25 26 27 28 29 30 31 32 33 34 35 36 37 38 39 40 41 42 43 44 45 46 47 48 49 50
000
ASUS43 KFSD 282202
RWRSD

WEATHER ROUNDUP FOR SOUTH DAKOTA
NATIONAL WEATHER SERVICE SIOUX FALLS SD
500 PM CDT TUE JUL 28 2015

NOTE: "FAIR" INDICATES FEW OR NO CLOUDS BELOW 12,000 FEET WITH NO
SIGNIFICANT WEATHER AND/OR OBSTRUCTIONS TO VISIBILITY.


SDZ001>005-009-010-012>017-282300-
NORTHWEST AND NORTH CENTRAL SOUTH DAKOTA

CITY           SKY/WX    TMP DP  RH WIND       PRES   REMARKS
BUFFALO          N/A     67  45  45 NW38G48   29.95R
FAITH            N/A     74  41  30 W31G46    29.98R
MOBRIDGE       MOSUNNY   76  49  38 W32G43    29.87R
$$

SDZ012>016-024>037-041>051-057-063-072>074-282300-
SOUTHWEST AND SOUTH CENTRAL SOUTH DAKOTA

CITY           SKY/WX    TMP DP  RH WIND       PRES   REMARKS
RAPID CTY ARPT PTSUNNY   77  42  28 NW18      30.05R
PIERRE         SUNNY     83  43  24 W30G41    29.93R
CUSTER         MOSUNNY   68  34  28 W16G29    30.17R
ELLSWORTH AFB  SUNNY     78  42  27 NW22G28   30.04R
PHILIP         SUNNY     81  45  28 W21       29.99R
PINE RIDGE     SUNNY     80  38  22 W15G21    30.06F
WINNER         FAIR      82  45  27 NW15G23   29.99S
$$

SDZ004>011-016>023-039-040-282300-
NORTHEAST SOUTH DAKOTA

CITY           SKY/WX    TMP DP  RH WIND       PRES   REMARKS
ABERDEEN       MOSUNNY   80  50  34 W26G37    29.84S
WATERTOWN      SUNNY     78  55  44 W22       29.88R
BROOKINGS      SUNNY     75  57  53 W18G26    29.91S
SISSETON         N/A     79  55  43 W20G32    29.81R
$$

SDZ017-020-022-023-036>040-048>070-282300-
SOUTHEAST SOUTH DAKOTA

CITY           SKY/WX    TMP DP  RH WIND       PRES   REMARKS
SIOUX FALLS    MOSUNNY   79  57  46 NW18G25   29.92R
HURON          SUNNY     80  53  39 W23G30    29.90S
CHAMBERLAIN    SUNNY     81  48  31 W21       29.96R
MITCHELL       SUNNY     81  51  35 W21G26    29.93S
YANKTON        SUNNY     81  55  41 MISG      29.93S
$$

ABBREVIATIONS USED IN REMARKS
   TC - TEMPERATURE IN CELSIUS
  WCI - WIND CHILL INDEX
   HX - HEAT INDEX
  VSB - VISIBILITY




USA.gov is the U.S. government's official web portal to all federal, state and local government web resources and services.